When you browse on this site, cookies collect data to enhance your experience and personalize the content and advertising you see.
Visit our Privacy Policy to learn more. By continuing to use the site, you agree to this use of cookies and data.
  • en Suisse
  • Liste des pays
  • À 7 jours
  • Température de l'eau
  • Carte satellitaire
  • Carte météo
  • Widgets météo
  • user-avatar
    Se connecter

    Météo par heure à Zhemchuzhnikovo

    Ce jour, 20 Juin, Jeudi

    Heure Température Précipitation Vent Pression Humidité
    00:00 +16°C° 0 mm 1 m/s 743 mmHg 80%
    01:00 +16°C° 0 mm 1 m/s 743 mmHg 81%
    02:00 +15°C° 0 mm 1 m/s 743 mmHg 77%
    03:00 +16°C° 0 mm 1 m/s 743 mmHg 78%
    04:00 +18°C° 0 mm 1 m/s 744 mmHg 78%
    05:00 +17°C° 0 mm 0 m/s 744 mmHg 79%
    06:00 +19°C° 0 mm 0 m/s 744 mmHg 74%
    07:00 +20°C° 0 mm 0 m/s 744 mmHg 69%
    08:00 +22°C° 0 mm 0 m/s 744 mmHg 65%
    09:00 +25°C° 0 mm 1 m/s 744 mmHg 60%
    10:00 +26°C° 0 mm 1 m/s 744 mmHg 56%
    11:00 +27°C° 0 mm 1 m/s 744 mmHg 51%
    12:00 +27°C° 0 mm 1 m/s 744 mmHg 50%
    13:00 +28°C° 0 mm 1 m/s 744 mmHg 49%
    14:00 +28°C° 0 mm 1 m/s 744 mmHg 48%
    15:00 +28°C° 0 mm 1 m/s 743 mmHg 52%
    16:00 +27°C° 0 mm 1 m/s 743 mmHg 57%
    17:00 +27°C° 0 mm 1 m/s 743 mmHg 62%
    18:00 +25°C° 0 mm 1 m/s 743 mmHg 66%
    19:00 +23°C° 0 mm 1 m/s 743 mmHg 69%
    20:00 +21°C° 0 mm 1 m/s 743 mmHg 73%
    21:00 +20°C° 0 mm 1 m/s 743 mmHg 75%
    22:00 +20°C° 0 mm 1 m/s 743 mmHg 77%
    23:00 +19°C° 0 mm 1 m/s 743 mmHg 79%

    Demain, 21 Juin, Vendredi

    Heure Température Précipitation Vent Pression Humidité
    00:00 +19°C° 0 mm 1 m/s 744 mmHg 80%
    01:00 +18°C° 0 mm 1 m/s 744 mmHg 81%
    02:00 +18°C° 0 mm 1 m/s 744 mmHg 82%
    03:00 +18°C° 0 mm 1 m/s 744 mmHg 83%
    04:00 +19°C° 0 mm 1 m/s 744 mmHg 83%
    05:00 +19°C° 0 mm 1 m/s 744 mmHg 83%
    06:00 +20°C° 0 mm 2 m/s 744 mmHg 79%
    07:00 +21°C° 0 mm 2 m/s 745 mmHg 75%
    08:00 +24°C° 0 mm 2 m/s 745 mmHg 71%
    09:00 +25°C° 0 mm 3 m/s 745 mmHg 68%
    10:00 +26°C° 0 mm 3 m/s 745 mmHg 65%
    11:00 +27°C° 0 mm 3 m/s 744 mmHg 62%
    12:00 +27°C° 0 mm 4 m/s 744 mmHg 61%
    13:00 +28°C° 0 mm 4 m/s 744 mmHg 60%
    14:00 +28°C° 0 mm 4 m/s 744 mmHg 59%
    15:00 +28°C° 0 mm 4 m/s 744 mmHg 63%
    16:00 +27°C° 0 mm 4 m/s 744 mmHg 67%
    17:00 +27°C° 0 mm 3 m/s 744 mmHg 71%
    18:00 +26°C° 0 mm 3 m/s 743 mmHg 75%
    19:00 +24°C° 0 mm 3 m/s 743 mmHg 79%
    20:00 +21°C° 0 mm 3 m/s 743 mmHg 84%
    21:00 +21°C° 0 mm 3 m/s 743 mmHg 84%
    22:00 +20°C° 0 mm 3 m/s 744 mmHg 84%
    23:00 +19°C° 0 mm 3 m/s 744 mmHg 85%

    Après-demain, 22 Juin, Samedi

    Heure Température Précipitation Vent Pression Humidité
    00:00 +19°C° 0 mm 3 m/s 744 mmHg 87%
    01:00 +18°C° 0 mm 3 m/s 744 mmHg 89%
    02:00 +18°C° 0 mm 3 m/s 744 mmHg 90%
    03:00 +18°C° 0 mm 3 m/s 744 mmHg 90%
    04:00 +19°C° 0 mm 3 m/s 744 mmHg 89%
    05:00 +19°C° 0 mm 3 m/s 744 mmHg 88%
    06:00 +21°C° 0 mm 3 m/s 744 mmHg 84%
    07:00 +23°C° 0 mm 4 m/s 744 mmHg 79%
    08:00 +25°C° 0 mm 4 m/s 745 mmHg 75%
    09:00 +26°C° 0 mm 4 m/s 744 mmHg 71%
    10:00 +27°C° 0 mm 4 m/s 744 mmHg 67%
    11:00 +28°C° 0 mm 5 m/s 744 mmHg 63%
    12:00 +28°C° 0 mm 5 m/s 744 mmHg 61%
    13:00 +29°C° 0 mm 5 m/s 744 mmHg 60%
    14:00 +29°C° 0 mm 5 m/s 744 mmHg 59%
    15:00 +29°C° 0 mm 4 m/s 744 mmHg 62%
    16:00 +28°C° 0 mm 4 m/s 743 mmHg 66%
    17:00 +28°C° 0 mm 3 m/s 743 mmHg 69%
    18:00 +26°C° 0 mm 3 m/s 743 mmHg 73%
    19:00 +25°C° 0 mm 3 m/s 744 mmHg 77%
    20:00 +22°C° 0 mm 3 m/s 744 mmHg 81%
    21:00 +21°C° 0 mm 2 m/s 744 mmHg 83%
    22:00 +21°C° 0 mm 2 m/s 744 mmHg 85%
    23:00 +20°C° 0 mm 2 m/s 744 mmHg 87%

    23 Juin, Dimanche

    Heure Température Précipitation Vent Pression Humidité
    00:00 +19°C° 0 mm 2 m/s 744 mmHg 88%
    01:00 +19°C° 0 mm 2 m/s 744 mmHg 90%
    02:00 +19°C° 0 mm 2 m/s 744 mmHg 91%
    03:00 +19°C° 0 mm 2 m/s 744 mmHg 90%
    04:00 +20°C° 0 mm 2 m/s 744 mmHg 89%
    05:00 +20°C° 0 mm 2 m/s 744 mmHg 88%
    06:00 +23°C° 0 mm 2 m/s 744 mmHg 83%
    07:00 +25°C° 0 mm 2 m/s 744 mmHg 78%
    08:00 +26°C° 0 mm 2 m/s 745 mmHg 72%
    09:00 +27°C° 0 mm 3 m/s 745 mmHg 67%
    10:00 +28°C° 0 mm 3 m/s 745 mmHg 62%
    11:00 +29°C° 0 mm 3 m/s 745 mmHg 56%
    12:00 +29°C° 0.3 mm 3 m/s 745 mmHg 58%
    13:00 +29°C° 0.3 mm 3 m/s 745 mmHg 60%
    14:00 +29°C° 0.3 mm 3 m/s 745 mmHg 62%
    15:00 +28°C° 0.9 mm 2 m/s 745 mmHg 66%
    16:00 +28°C° 0.9 mm 2 m/s 744 mmHg 71%
    17:00 +27°C° 0.9 mm 1 m/s 744 mmHg 75%
    18:00 +25°C° 0.3 mm 1 m/s 745 mmHg 79%
    19:00 +24°C° 0.3 mm 1 m/s 745 mmHg 82%
    20:00 +22°C° 0.3 mm 1 m/s 745 mmHg 85%
    21:00 +22°C° 0 mm 1 m/s 745 mmHg 88%
    22:00 +20°C° 0 mm 2 m/s 745 mmHg 90%
    23:00 +19°C° 0 mm 2 m/s 745 mmHg 93%

    24 Juin, Lundi

    Heure Température Précipitation Vent Pression Humidité
    00:00 +19°C° 0 mm 2 m/s 745 mmHg 94%
    01:00 +19°C° 0 mm 2 m/s 746 mmHg 95%
    02:00 +18°C° 0 mm 3 m/s 746 mmHg 96%
    03:00 +18°C° 0 mm 3 m/s 746 mmHg 94%
    04:00 +18°C° 0 mm 3 m/s 746 mmHg 91%
    05:00 +18°C° 0 mm 3 m/s 746 mmHg 89%
    06:00 +19°C° 0 mm 4 m/s 746 mmHg 86%
    07:00 +20°C° 0 mm 4 m/s 747 mmHg 83%
    08:00 +21°C° 0 mm 4 m/s 747 mmHg 80%
    09:00 +22°C° 0 mm 5 m/s 747 mmHg 75%
    10:00 +23°C° 0 mm 5 m/s 747 mmHg 70%
    11:00 +23°C° 0 mm 5 m/s 747 mmHg 65%
    12:00 +25°C° 0 mm 5 m/s 747 mmHg 64%
    13:00 +25°C° 0 mm 5 m/s 747 mmHg 64%
    14:00 +25°C° 0 mm 5 m/s 747 mmHg 63%
    15:00 +23°C° 0 mm 5 m/s 747 mmHg 64%
    16:00 +23°C° 0 mm 5 m/s 747 mmHg 66%
    17:00 +22°C° 0 mm 4 m/s 747 mmHg 67%
    18:00 +21°C° 0 mm 4 m/s 747 mmHg 69%
    19:00 +19°C° 0 mm 3 m/s 747 mmHg 70%
    20:00 +18°C° 0 mm 3 m/s 747 mmHg 72%
    21:00 +17°C° 0 mm 3 m/s 748 mmHg 71%
    22:00 +17°C° 0 mm 3 m/s 748 mmHg 69%
    23:00 +16°C° 0 mm 3 m/s 748 mmHg 68%

    25 Juin, Mardi

    Heure Température Précipitation Vent Pression Humidité
    00:00 +16°C° 0 mm 3 m/s 748 mmHg 67%
    01:00 +17°C° 0 mm 3 m/s 748 mmHg 65%
    02:00 +17°C° 0 mm 3 m/s 748 mmHg 64%
    03:00 +16°C° 0 mm 3 m/s 748 mmHg 68%
    04:00 +16°C° 0 mm 3 m/s 748 mmHg 71%
    05:00 +16°C° 0 mm 3 m/s 748 mmHg 75%
    06:00 +17°C° 0 mm 3 m/s 748 mmHg 73%
    07:00 +17°C° 0 mm 4 m/s 748 mmHg 72%
    08:00 +18°C° 0 mm 4 m/s 748 mmHg 70%
    09:00 +18°C° 0 mm 3 m/s 748 mmHg 69%
    10:00 +19°C° 0 mm 3 m/s 747 mmHg 68%
    11:00 +19°C° 0 mm 2 m/s 747 mmHg 67%
    12:00 +19°C° 0 mm 2 m/s 747 mmHg 67%
    13:00 +20°C° 0 mm 2 m/s 747 mmHg 66%
    14:00 +21°C° 0 mm 1 m/s 747 mmHg 65%
    15:00 +21°C° 0 mm 1 m/s 746 mmHg 65%
    16:00 +22°C° 0 mm 1 m/s 746 mmHg 64%
    17:00 +20°C° 0 mm 0 m/s 746 mmHg 64%
    18:00 +18°C° 0 mm 0 m/s 745 mmHg 69%
    19:00 +17°C° 0 mm 0 m/s 745 mmHg 74%
    20:00 +15°C° 0 mm 0 m/s 745 mmHg 78%
    21:00 +16°C° 0 mm 1 m/s 745 mmHg 80%
    22:00 +15°C° 0 mm 1 m/s 745 mmHg 82%
    23:00 +14°C° 0 mm 1 m/s 745 mmHg 84%
    Voir plus